• In Uzbekistan
  • List of Countries
  • For 7 days
  • Water Temperature
  • Weather Map
  • Weather Widgets
  • user-avatar
    Login

    Hourly Weather Shusha

    Today, 30 March, Monday

    Time Temperature Precipitation Wind Pressure Humidity
    00:00 +5°C° 0 mm 0 mps 650 mmHg 91%
    01:00 +5°C° 0 mm 1 mps 649 mmHg 89%
    02:00 +5°C° 0 mm 1 mps 649 mmHg 86%
    03:00 +4°C° 0 mm 1 mps 648 mmHg 86%
    04:00 +4°C° 0 mm 1 mps 648 mmHg 83%
    05:00 +4°C° 0 mm 1 mps 649 mmHg 80%
    06:00 +4°C° 0 mm 1 mps 649 mmHg 77%
    07:00 +6°C° 0 mm 1 mps 649 mmHg 72%
    08:00 +8°C° 0 mm 1 mps 649 mmHg 66%
    09:00 +10°C° 0 mm 1 mps 649 mmHg 60%
    10:00 +10°C° 0 mm 2 mps 649 mmHg 57%
    11:00 +12°C° 0 mm 2 mps 650 mmHg 53%
    12:00 +13°C° 0 mm 2 mps 650 mmHg 50%
    13:00 +13°C° 0.5 mm 2 mps 649 mmHg 53%
    14:00 +12°C° 0.5 mm 2 mps 649 mmHg 56%
    15:00 +12°C° 0.5 mm 2 mps 648 mmHg 60%
    16:00 +10°C° 0.5 mm 2 mps 648 mmHg 65%
    17:00 +9°C° 0.5 mm 2 mps 648 mmHg 70%
    18:00 +8°C° 0.5 mm 2 mps 649 mmHg 75%
    19:00 +7°C° 0.2 mm 2 mps 649 mmHg 78%
    20:00 +7°C° 0.2 mm 2 mps 649 mmHg 80%
    21:00 +6°C° 0.2 mm 2 mps 650 mmHg 83%
    22:00 +6°C° 0 mm 2 mps 650 mmHg 84%
    23:00 +6°C° 0 mm 2 mps 650 mmHg 85%

    Tomorrow, 31 March, Tuesday

    Time Temperature Precipitation Wind Pressure Humidity
    00:00 +5°C° 0 mm 2 mps 651 mmHg 86%
    01:00 +6°C° 0 mm 1 mps 651 mmHg 86%
    02:00 +5°C° 0 mm 1 mps 651 mmHg 86%
    03:00 +5°C° 0 mm 1 mps 651 mmHg 86%
    04:00 +5°C° 0 mm 1 mps 652 mmHg 85%
    05:00 +5°C° 0 mm 1 mps 652 mmHg 83%
    06:00 +5°C° 0 mm 1 mps 653 mmHg 82%
    07:00 +6°C° 0 mm 1 mps 653 mmHg 75%
    08:00 +8°C° 0 mm 1 mps 654 mmHg 68%
    09:00 +10°C° 0 mm 1 mps 654 mmHg 61%
    10:00 +11°C° 0 mm 1 mps 655 mmHg 59%
    11:00 +12°C° 0 mm 2 mps 655 mmHg 57%
    12:00 +13°C° 0 mm 2 mps 655 mmHg 55%
    13:00 +13°C° 0.3 mm 2 mps 655 mmHg 55%
    14:00 +13°C° 0.3 mm 2 mps 655 mmHg 54%
    15:00 +13°C° 0.3 mm 2 mps 655 mmHg 54%
    16:00 +12°C° 0.6 mm 2 mps 655 mmHg 61%
    17:00 +11°C° 0.6 mm 1 mps 654 mmHg 68%
    18:00 +10°C° 0.6 mm 1 mps 654 mmHg 75%
    19:00 +9°C° 0.1 mm 1 mps 655 mmHg 76%
    20:00 +8°C° 0.1 mm 1 mps 655 mmHg 77%
    21:00 +8°C° 0.1 mm 1 mps 655 mmHg 78%
    22:00 +7°C° 0 mm 1 mps 655 mmHg 78%
    23:00 +7°C° 0 mm 1 mps 655 mmHg 77%

    Day after tomorrow, 1 April, Wednesday

    Time Temperature Precipitation Wind Pressure Humidity
    00:00 +7°C° 0 mm 1 mps 655 mmHg 77%
    01:00 +7°C° 0 mm 1 mps 655 mmHg 77%
    02:00 +6°C° 0 mm 1 mps 655 mmHg 76%
    03:00 +6°C° 0 mm 1 mps 654 mmHg 76%
    04:00 +6°C° 0 mm 1 mps 654 mmHg 76%
    05:00 +6°C° 0 mm 1 mps 655 mmHg 76%
    06:00 +5°C° 0 mm 0 mps 655 mmHg 75%
    07:00 +7°C° 0 mm 1 mps 655 mmHg 72%
    08:00 +9°C° 0 mm 1 mps 655 mmHg 69%
    09:00 +10°C° 0 mm 1 mps 656 mmHg 66%
    10:00 +11°C° 0 mm 1 mps 655 mmHg 66%
    11:00 +10°C° 0 mm 2 mps 655 mmHg 66%
    12:00 +12°C° 0 mm 2 mps 655 mmHg 67%
    13:00 +12°C° 0.1 mm 2 mps 654 mmHg 69%
    14:00 +10°C° 0.1 mm 2 mps 654 mmHg 72%
    15:00 +10°C° 0.1 mm 2 mps 653 mmHg 74%
    16:00 +9°C° 0.1 mm 2 mps 653 mmHg 78%
    17:00 +10°C° 0.1 mm 1 mps 653 mmHg 82%
    18:00 +9°C° 0.1 mm 1 mps 653 mmHg 86%
    19:00 +9°C° 0.1 mm 1 mps 653 mmHg 88%
    20:00 +9°C° 0.1 mm 1 mps 653 mmHg 90%
    21:00 +7°C° 0.1 mm 0 mps 653 mmHg 92%
    22:00 +7°C° 0.1 mm 0 mps 653 mmHg 93%
    23:00 +6°C° 0.1 mm 0 mps 652 mmHg 95%

    2 April, Thursday

    Time Temperature Precipitation Wind Pressure Humidity
    00:00 +6°C° 0.1 mm 0 mps 652 mmHg 96%
    01:00 +6°C° 0.2 mm 0 mps 652 mmHg 96%
    02:00 +6°C° 0.2 mm 0 mps 652 mmHg 96%
    03:00 +6°C° 0.2 mm 0 mps 652 mmHg 96%
    04:00 +6°C° 0.1 mm 0 mps 652 mmHg 95%
    05:00 +6°C° 0.1 mm 0 mps 652 mmHg 95%
    06:00 +6°C° 0.1 mm 0 mps 652 mmHg 94%
    07:00 +8°C° 0.1 mm 1 mps 653 mmHg 89%
    08:00 +9°C° 0.1 mm 1 mps 653 mmHg 83%
    09:00 +10°C° 0.1 mm 1 mps 654 mmHg 78%
    10:00 +10°C° 0.3 mm 2 mps 654 mmHg 78%
    11:00 +10°C° 0.3 mm 2 mps 654 mmHg 77%
    12:00 +10°C° 0.3 mm 2 mps 654 mmHg 77%
    13:00 +10°C° 0.4 mm 2 mps 654 mmHg 77%
    14:00 +10°C° 0.4 mm 2 mps 654 mmHg 77%
    15:00 +10°C° 0.4 mm 2 mps 653 mmHg 77%
    16:00 +10°C° 0.2 mm 2 mps 653 mmHg 79%
    17:00 +10°C° 0.2 mm 1 mps 653 mmHg 82%
    18:00 +9°C° 0.2 mm 1 mps 653 mmHg 84%
    19:00 +9°C° 0.1 mm 1 mps 654 mmHg 85%
    20:00 +9°C° 0.1 mm 1 mps 654 mmHg 85%
    21:00 +9°C° 0.1 mm 1 mps 655 mmHg 86%
    22:00 +8°C° 0.1 mm 1 mps 655 mmHg 86%
    23:00 +8°C° 0.1 mm 1 mps 655 mmHg 87%

    3 April, Friday

    Time Temperature Precipitation Wind Pressure Humidity
    00:00 +8°C° 0.1 mm 1 mps 654 mmHg 87%
    01:00 +8°C° 0 mm 1 mps 654 mmHg 87%
    02:00 +7°C° 0 mm 1 mps 654 mmHg 86%
    03:00 +7°C° 0 mm 1 mps 654 mmHg 86%
    04:00 +7°C° 0 mm 1 mps 654 mmHg 85%
    05:00 +6°C° 0 mm 1 mps 654 mmHg 84%
    06:00 +6°C° 0 mm 1 mps 654 mmHg 84%
    07:00 +8°C° 0 mm 1 mps 655 mmHg 80%
    08:00 +9°C° 0 mm 1 mps 655 mmHg 76%
    09:00 +11°C° 0 mm 1 mps 656 mmHg 73%
    10:00 +10°C° 0.1 mm 2 mps 655 mmHg 73%
    11:00 +12°C° 0.1 mm 2 mps 655 mmHg 73%
    12:00 +12°C° 0.1 mm 2 mps 655 mmHg 74%
    13:00 +12°C° 0.7 mm 2 mps 655 mmHg 76%
    14:00 +12°C° 0.7 mm 2 mps 654 mmHg 79%
    15:00 +10°C° 0.7 mm 2 mps 654 mmHg 81%
    16:00 +10°C° 0.5 mm 2 mps 654 mmHg 84%
    17:00 +10°C° 0.5 mm 1 mps 654 mmHg 87%
    18:00 +10°C° 0.5 mm 1 mps 654 mmHg 90%
    19:00 +9°C° 0.1 mm 1 mps 654 mmHg 91%
    20:00 +9°C° 0.1 mm 1 mps 654 mmHg 92%
    21:00 +8°C° 0.1 mm 1 mps 654 mmHg 94%
    22:00 +8°C° 0 mm 1 mps 654 mmHg 94%
    23:00 +7°C° 0 mm 0 mps 654 mmHg 94%

    4 April, Saturday

    Time Temperature Precipitation Wind Pressure Humidity
    00:00 +6°C° 0 mm 0 mps 654 mmHg 94%
    01:00 +6°C° 0 mm 0 mps 654 mmHg 95%
    02:00 +6°C° 0 mm 0 mps 654 mmHg 95%
    03:00 +6°C° 0 mm 0 mps 654 mmHg 96%
    04:00 +6°C° 0 mm 0 mps 654 mmHg 96%
    05:00 +6°C° 0 mm 0 mps 654 mmHg 96%
    06:00 +6°C° 0 mm 0 mps 654 mmHg 97%
    07:00 +7°C° 0.1 mm 1 mps 654 mmHg 95%
    08:00 +8°C° 0.1 mm 1 mps 654 mmHg 93%
    09:00 +8°C° 0.1 mm 1 mps 654 mmHg 92%
    10:00 +9°C° 0.3 mm 1 mps 654 mmHg 90%
    11:00 +8°C° 0.3 mm 2 mps 655 mmHg 87%
    12:00 +9°C° 0.3 mm 2 mps 655 mmHg 85%
    13:00 +8°C° 0.8 mm 2 mps 655 mmHg 86%
    14:00 +8°C° 0.8 mm 2 mps 654 mmHg 87%
    15:00 +8°C° 0.8 mm 3 mps 654 mmHg 88%
    16:00 +7°C° 0.6 mm 2 mps 654 mmHg 88%
    17:00 +7°C° 0.6 mm 2 mps 654 mmHg 89%
    18:00 +7°C° 0.6 mm 1 mps 654 mmHg 90%
    19:00 +7°C° 0.6 mm 1 mps 655 mmHg 90%
    20:00 +7°C° 0.6 mm 1 mps 655 mmHg 89%
    21:00 +7°C° 0.6 mm 1 mps 656 mmHg 89%
    22:00 +6°C° 0 mm 1 mps 656 mmHg 89%
    23:00 +6°C° 0 mm 1 mps 656 mmHg 89%
    Show more